Starlink 11151

operational
NORAD ID: 60049 Int'l Des: 2024-112 Owner: SPXS Country: US Constellation: starlink
LEOCIRCULAR

关于 Starlink 11151

正在加载描述...

实时位置

正在加载3D地球...

即将过境

高度历史

Altitude vs Time

uPlot chart will show altitude changes over time

两行轨道根数

1 60049U 24112M 25260.69635032 -.00001263 00000-0 -55532-5 0 9997
2 60049 53.1590 38.8297 0002047 36.0354 324.0802 15.69714462 73818
Epoch: Sep 17, 2025 • Age: 22 hours

当前状态

高度 365.2 km
速度 7.70 km/s
星下点 52.75°N, 101.85°W
发射日期 Jun 8, 2024
运行时间 1.2 years
类型 internet

技术详情

分类 Payload
质量 960.00 kg
干质量 910.00 kg
总质量 960.00 kg
长度 0.30 m
直径 4.10 m
跨度 29.00 m
形状 Box + pan
制造商 SPXS
平台类型 Starlink V2MD
阶段状态 In Orbit
所有者/国家 SPXS/US

大型星座

Loading constellations...